Torna al catalogo

QIANFAN-79

AttivoComunicazioniPO
NORAD 63165·PAYLOAD·🇨🇳 China

Lanciato Mar 11, 2025 da Wenchang Space Launch Site

Loading…

Prossimi Passaggi (prossime 24 ore)

TLE

AggiornatoSource: Space-Track

Epoca: Sep 14, 2026, 14:25 UTC

1 63165U 25046G   26257.60091738  .00000025  00000-0  19376-4 0  9991
2 63165  88.9655 291.4685 0016309  56.3465 303.9239 13.51021107 84627

Traccia QIANFAN-79 in tempo reale con AllMySat

Download on the App Store